Du Bois, PA

1:48 AM EDT on October 18, 2017 (GMT -0400)
Du Bois-Jefferson County

Weather History for KDUJ - April, 2012

Change the Weather History Date:

Thursday, April 12, 2012

  Actual Average Record
Temperature  
Mean Temperature 38 °F 45 °F  
Max Temperature 49 °F 56 °F 81 °F (2001)
Min Temperature 27 °F 35 °F 18 °F (1967)
Degree Days  
Heating Degree Days 27 20  
Month to date heating degree days 262 262  
Since 1 July heating degree days 4796 6220  
Cooling Degree Days 0 0  
Month to date cooling degree days 0 0  
Year to date cooling degree days 0 0  
Moisture  
Dew Point 27 °F    
Average Humidity 71    
Maximum Humidity 100    
Minimum Humidity 42    
Precipitation  
Precipitation 0.00 in 0.11 in 16.52 in (1997)
Month to date precipitation 0.24 1.41  
Sea Level Pressure  
Sea Level Pressure 30.15 in    
Wind  
Wind Speed 6 mph (WNW)    
Max Wind Speed 16 mph    
Max Gust Speed 22 mph    
Visibility 10 miles    
Events      
T = Trace of Precipitation, MM = Missing Value Source: NWS Daily Summary

Daily Weather History Graph

Daily Weather History Graph

Search for Another Location

Airport or City:

Trip Planner

Search our weather history database for the weather conditions in past years. The results will help you decide how hot, cold, wet, or windy it might be!

Date:

Astronomy

Apr. 12, 2012 Rise Set
Actual Time 6:40 AM EDT 7:52 PM EDT
Civil Twilight 6:11 AM EDT 8:21 PM EDT
Nautical Twilight 5:37 AM EDT 8:55 PM EDT
Astronomical Twilight 5:02 AM EDT 9:31 PM EDT
Moon 1:40 AM EDT (4/12) 11:31 AM EDT (4/12)
Length of Visible Light 14h 09m
Length of Day
13h 12m
Waning Gibbous, 59% of the Moon is Illuminated
Apr 12
Waning Gibbous
Apr 13
Last Quarter
Apr 21
New
Apr 29
First Quarter
May 5
Full

Hourly Weather History & Observations

Time (EDT) Temp. Windchill Dew Point Humidity Pressure Visibility Wind Dir Wind Speed Gust Speed Precip Events Conditions
12:56 AM 30.9 °F - 30.0 °F 96% 30.12 in 10.0 mi Calm Calm - N/A   Mostly Cloudy
1:56 AM 32.0 °F 28.7 °F 30.0 °F 92% 30.12 in 10.0 mi West 3.5 mph - N/A   Partly Cloudy
2:56 AM 30.2 °F 24.3 °F 28.4 °F 93% 30.07 in 10.0 mi West 5.8 mph - N/A   Mostly Cloudy
3:56 AM 30.0 °F 25.2 °F 28.0 °F 92% 30.11 in 10.0 mi WSW 4.6 mph - N/A   Clear
4:56 AM 30.0 °F 25.2 °F 27.0 °F 88% 30.13 in 7.0 mi WSW 4.6 mph - N/A   Clear
5:56 AM 28.9 °F 25.2 °F 27.0 °F 92% 30.14 in 7.0 mi WSW 3.5 mph - N/A   Clear
6:56 AM 28.0 °F 21.7 °F 27.0 °F 96% 30.16 in 10.0 mi West 5.8 mph - N/A   Clear
7:56 AM 30.0 °F 25.2 °F 28.9 °F 96% 30.19 in 10.0 mi West 4.6 mph - N/A   Clear
8:56 AM 37.0 °F 31.6 °F 30.9 °F 79% 30.19 in 10.0 mi NNW 6.9 mph - N/A   Clear
9:56 AM 41.0 °F 36.4 °F 30.9 °F 67% 30.20 in 10.0 mi NW 6.9 mph - N/A   Clear
10:56 AM 45.0 °F 40.6 °F 28.0 °F 52% 30.19 in 10.0 mi NW 8.1 mph - N/A   Clear
11:56 AM 45.0 °F 40.6 °F 28.0 °F 52% 30.19 in 10.0 mi WNW 8.1 mph - N/A   Overcast
12:56 PM 45.0 °F 38.9 °F 26.1 °F 48% 30.20 in 10.0 mi West 12.7 mph 18.4 mph N/A   Overcast
1:56 PM 46.4 °F 40.7 °F 26.6 °F 46% 30.16 in 10.0 mi NNW 12.7 mph - N/A   Overcast
2:56 PM 46.4 °F 42.4 °F 26.6 °F 46% 30.14 in 10.0 mi North 8.1 mph 18.4 mph N/A   Overcast
3:56 PM 48.2 °F - 26.6 °F 43% 30.12 in 10.0 mi NNW 10.4 mph - N/A   Overcast
4:56 PM 48.2 °F - 26.6 °F 43% 30.12 in 10.0 mi West 12.7 mph - N/A   Overcast
5:56 PM 48.0 °F - 26.1 °F 42% 30.15 in 10.0 mi NW 4.6 mph - N/A   Overcast
6:56 PM 46.9 °F - 26.1 °F 44% 30.14 in 10.0 mi West 8.1 mph - N/A   Mostly Cloudy
7:56 PM 45.0 °F 43.5 °F 24.1 °F 44% 30.15 in 10.0 mi WNW 3.5 mph - N/A   Scattered Clouds
8:56 PM 44.1 °F 41.5 °F 24.1 °F 45% 30.17 in 10.0 mi NW 4.6 mph - N/A   Overcast
9:56 PM 42.1 °F 38.4 °F 25.0 °F 51% 30.19 in 10.0 mi North 5.8 mph - N/A   Clear
10:56 PM 39.2 °F 37.0 °F 24.8 °F 56% 30.17 in 10.0 mi North 3.5 mph - N/A   Clear
11:56 PM 39.2 °F 35.9 °F 24.8 °F 56% 30.17 in 10.0 mi NNE 4.6 mph - N/A   Clear